Time,TemperatureF,DewpointF,PressureIn,WindDirection,WindDirectionDegrees,WindSpeedMPH,WindSpeedGustMPH,Humidity,HourlyPrecipIn,Conditions,Clouds,dailyrainin,SoftwareType,DateUTC
2013-02-05 00:10:00,23.5,20.0,29.97,SE,136,8.0,8.0,85,0.00,,,0.00,weatherlink.com 1.10,2013-02-05 06:10:00,
2013-02-05 00:25:00,23.8,20.0,29.97,SSE,152,6.0,9.0,85,0.00,,,0.00,weatherlink.com 1.10,2013-02-05 06:25:00,
2013-02-05 00:40:00,23.9,20.0,29.97,South,169,4.0,8.0,85,0.00,,,0.00,weatherlink.com 1.10,2013-02-05 06:40:00,
2013-02-05 00:55:00,23.9,20.0,29.97,SSW,196,1.0,8.0,85,0.00,,,0.00,weatherlink.com 1.10,2013-02-05 06:55:00,
2013-02-05 01:10:00,24.0,20.0,29.98,SSW,204,3.0,6.0,84,0.00,,,0.00,weatherlink.com 1.10,2013-02-05 07:10:00,
2013-02-05 01:25:00,24.0,20.0,29.97,South,170,3.0,6.0,85,0.00,,,0.00,weatherlink.com 1.10,2013-02-05 07:25:00,
2013-02-05 01:40:00,24.1,20.0,29.97,SSE,167,4.0,5.0,85,0.00,,,0.00,weatherlink.com 1.10,2013-02-05 07:40:00,
2013-02-05 01:55:00,24.2,20.0,29.97,South,182,3.0,6.0,85,0.00,,,0.00,weatherlink.com 1.10,2013-02-05 07:55:00,
2013-02-05 02:10:00,24.3,20.0,29.96,SSE,164,2.0,7.0,85,0.00,,,0.00,weatherlink.com 1.10,2013-02-05 08:10:00,
2013-02-05 02:25:00,24.4,21.0,29.95,SSE,158,3.0,7.0,86,0.00,,,0.00,weatherlink.com 1.10,2013-02-05 08:25:00,
2013-02-05 02:40:00,24.5,21.0,29.94,SSW,207,7.0,7.0,86,0.00,,,0.00,weatherlink.com 1.10,2013-02-05 08:40:00,
2013-02-05 02:56:00,24.4,21.0,29.93,SSE,167,4.0,8.0,86,0.00,,,0.00,weatherlink.com 1.10,2013-02-05 08:56:00,
2013-02-05 03:11:00,24.4,21.0,29.93,South,186,3.0,7.0,86,0.00,,,0.00,weatherlink.com 1.10,2013-02-05 09:11:00,
2013-02-05 03:26:00,24.6,21.0,29.93,South,186,3.0,7.0,86,0.00,,,0.00,weatherlink.com 1.10,2013-02-05 09:26:00,
2013-02-05 03:41:00,24.4,21.0,29.91,South,188,8.0,8.0,86,0.00,,,0.00,weatherlink.com 1.10,2013-02-05 09:41:00,
2013-02-05 03:56:00,24.2,21.0,29.90,South,171,4.0,7.0,87,0.00,,,0.00,weatherlink.com 1.10,2013-02-05 09:56:00,
2013-02-05 04:11:00,24.1,21.0,29.90,South,184,3.0,7.0,87,0.00,,,0.00,weatherlink.com 1.10,2013-02-05 10:11:00,
2013-02-05 04:26:00,24.0,21.0,29.90,SSW,200,3.0,6.0,87,0.00,,,0.00,weatherlink.com 1.10,2013-02-05 10:26:00,
2013-02-05 04:41:00,23.8,21.0,29.90,SSW,207,5.0,7.0,87,0.00,,,0.00,weatherlink.com 1.10,2013-02-05 10:41:00,
2013-02-05 04:56:00,23.8,21.0,29.90,SSW,207,4.0,5.0,87,0.00,,,0.00,weatherlink.com 1.10,2013-02-05 10:56:00,
2013-02-05 05:11:00,23.8,21.0,29.89,SSW,207,1.0,6.0,87,0.00,,,0.00,weatherlink.com 1.10,2013-02-05 11:11:00,
2013-02-05 05:26:00,23.7,21.0,29.89,SSW,211,4.0,5.0,88,0.00,,,0.00,weatherlink.com 1.10,2013-02-05 11:26:00,
2013-02-05 05:41:00,23.6,21.0,29.89,SSW,209,2.0,4.0,88,0.00,,,0.00,weatherlink.com 1.10,2013-02-05 11:41:00,
2013-02-05 05:56:00,23.5,21.0,29.88,South,184,2.0,3.0,88,0.00,,,0.00,weatherlink.com 1.10,2013-02-05 11:56:00,
2013-02-05 06:11:00,23.3,20.0,29.88,SSW,194,1.0,2.0,88,0.00,,,0.00,weatherlink.com 1.10,2013-02-05 12:11:00,
2013-02-05 06:26:00,23.0,20.0,29.88,SSW,194,0.0,2.0,88,0.00,,,0.00,weatherlink.com 1.10,2013-02-05 12:26:00,
2013-02-05 06:41:00,22.7,20.0,29.89,SSW,194,0.0,2.0,90,0.00,,,0.00,weatherlink.com 1.10,2013-02-05 12:41:00,
2013-02-05 06:56:00,23.3,21.0,29.88,SSW,196,1.0,2.0,90,0.00,,,0.00,weatherlink.com 1.10,2013-02-05 12:56:00,
2013-02-05 07:11:00,24.5,22.0,29.89,WSW,251,5.0,6.0,90,0.00,,,0.00,weatherlink.com 1.10,2013-02-05 13:11:00,
2013-02-05 07:26:00,25.8,23.0,29.89,SSW,212,4.0,6.0,90,0.00,,,0.00,weatherlink.com 1.10,2013-02-05 13:26:00,
2013-02-05 07:41:00,27.0,24.0,29.90,WSW,249,6.0,9.0,88,0.00,,,0.00,weatherlink.com 1.10,2013-02-05 13:41:00,
2013-02-05 07:56:00,27.3,24.0,29.89,WSW,246,4.0,12.0,88,0.00,,,0.00,weatherlink.com 1.10,2013-02-05 13:56:00,
2013-02-05 08:11:00,27.4,24.0,29.90,WSW,240,2.0,7.0,87,0.00,,,0.00,weatherlink.com 1.10,2013-02-05 14:11:00,
2013-02-05 08:26:00,28.2,25.0,29.90,WNW,286,2.0,5.0,87,0.00,,,0.00,weatherlink.com 1.10,2013-02-05 14:26:00,
2013-02-05 08:41:00,29.0,26.0,29.91,WNW,290,2.0,6.0,87,0.00,,,0.00,weatherlink.com 1.10,2013-02-05 14:41:00,
2013-02-05 08:56:00,30.3,26.0,29.91,WSW,250,1.0,9.0,85,0.00,,,0.00,weatherlink.com 1.10,2013-02-05 14:56:00,
2013-02-05 09:11:00,31.4,27.0,29.91,West,279,3.0,8.0,84,0.00,,,0.00,weatherlink.com 1.10,2013-02-05 15:11:00,
2013-02-05 09:26:00,33.1,29.0,29.92,West,281,5.0,9.0,83,0.00,,,0.00,weatherlink.com 1.10,2013-02-05 15:26:00,
2013-02-05 09:41:00,34.7,29.0,29.92,WNW,284,5.0,10.0,81,0.00,,,0.00,weatherlink.com 1.10,2013-02-05 15:41:00,
2013-02-05 09:56:00,35.7,30.0,29.93,West,280,6.0,11.0,80,0.00,,,0.00,weatherlink.com 1.10,2013-02-05 15:56:00,
2013-02-05 10:12:00,36.8,31.0,29.93,WNW,282,8.0,14.0,79,0.00,,,0.00,weatherlink.com 1.10,2013-02-05 16:12:00,
2013-02-05 10:27:00,38.4,32.0,29.94,West,275,7.0,17.0,77,0.00,,,0.00,weatherlink.com 1.10,2013-02-05 16:27:00,
2013-02-05 10:42:00,38.7,32.0,29.95,WNW,294,13.0,18.0,77,0.00,,,0.00,weatherlink.com 1.10,2013-02-05 16:42:00,
2013-02-05 10:57:00,38.8,33.0,29.96,West,277,11.0,17.0,78,0.00,,,0.00,weatherlink.com 1.10,2013-02-05 16:57:00,
2013-02-05 11:12:00,39.4,33.0,29.98,NW,309,19.0,25.0,77,0.00,,,0.00,weatherlink.com 1.10,2013-02-05 17:12:00,
2013-02-05 11:27:00,39.4,33.0,29.99,NW,317,17.0,22.0,78,0.00,,,0.00,weatherlink.com 1.10,2013-02-05 17:27:00,
2013-02-05 13:00:00,42.6,37.0,30.00,WNW,298,10.0,17.0,79,0.00,,,0.00,weatherlink.com 1.10,2013-02-05 19:00:00,
2013-02-05 13:12:00,42.4,36.0,30.00,NW,323,11.0,20.0,79,0.00,,,0.00,weatherlink.com 1.10,2013-02-05 19:12:00,
2013-02-05 13:27:00,42.1,36.0,30.01,WNW,302,12.0,18.0,78,0.00,,,0.00,weatherlink.com 1.10,2013-02-05 19:27:00,
2013-02-05 13:42:00,42.8,36.0,30.01,NW,310,9.0,15.0,78,0.00,,,0.00,weatherlink.com 1.10,2013-02-05 19:42:00,
2013-02-05 13:57:00,43.4,36.0,30.01,NW,313,10.0,15.0,76,0.00,,,0.00,weatherlink.com 1.10,2013-02-05 19:57:00,
2013-02-05 14:12:00,42.8,36.0,30.02,NW,325,11.0,16.0,77,0.00,,,0.00,weatherlink.com 1.10,2013-02-05 20:12:00,
2013-02-05 14:27:00,42.9,36.0,30.02,NW,323,10.0,14.0,78,0.00,,,0.00,weatherlink.com 1.10,2013-02-05 20:27:00,
2013-02-05 14:42:00,43.1,35.0,30.03,NNW,340,14.0,19.0,74,0.00,,,0.00,weatherlink.com 1.10,2013-02-05 20:42:00,
2013-02-05 14:57:00,42.0,35.0,30.04,NNW,348,13.0,18.0,77,0.00,,,0.00,weatherlink.com 1.10,2013-02-05 20:57:00,
2013-02-05 15:12:00,42.0,35.0,30.04,NNW,335,11.0,17.0,76,0.00,,,0.00,weatherlink.com 1.10,2013-02-05 21:12:00,
2013-02-05 15:27:00,42.4,35.0,30.05,NW,313,18.0,18.0,75,0.00,,,0.00,weatherlink.com 1.10,2013-02-05 21:27:00,
2013-02-05 15:42:00,41.5,34.0,30.05,NNW,329,13.0,16.0,75,0.00,,,0.00,weatherlink.com 1.10,2013-02-05 21:42:00,
2013-02-05 15:57:00,40.8,33.0,30.06,NW,323,9.0,15.0,75,0.00,,,0.00,weatherlink.com 1.10,2013-02-05 21:57:00,
2013-02-05 16:12:00,40.0,33.0,30.06,NNW,341,9.0,13.0,76,0.00,,,0.00,weatherlink.com 1.10,2013-02-05 22:12:00,
2013-02-05 16:27:00,38.8,33.0,30.07,NNW,327,4.0,9.0,78,0.00,,,0.00,weatherlink.com 1.10,2013-02-05 22:27:00,
2013-02-05 16:42:00,37.7,33.0,30.07,NW,317,3.0,5.0,82,0.00,,,0.00,weatherlink.com 1.10,2013-02-05 22:42:00,
2013-02-05 16:57:00,38.2,33.0,30.07,West,276,2.0,4.0,81,0.00,,,0.00,weatherlink.com 1.10,2013-02-05 22:57:00,
2013-02-05 17:12:00,38.3,33.0,30.08,WNW,284,1.0,4.0,81,0.00,,,0.00,weatherlink.com 1.10,2013-02-05 23:12:00,
2013-02-05 17:27:00,37.0,32.0,30.08,NW,304,0.0,1.0,83,0.00,,,0.00,weatherlink.com 1.10,2013-02-05 23:27:00,
2013-02-05 17:42:00,35.2,31.0,30.08,NW,304,0.0,0.0,86,0.00,,,0.00,weatherlink.com 1.10,2013-02-05 23:42:00,
2013-02-05 17:57:00,34.5,31.0,30.08,NW,304,0.0,0.0,86,0.00,,,0.00,weatherlink.com 1.10,2013-02-05 23:57:00,
2013-02-05 18:12:00,33.6,30.0,30.09,NW,304,0.0,0.0,88,0.00,,,0.00,weatherlink.com 1.10,2013-02-06 00:12:00,
2013-02-05 18:27:00,33.5,31.0,30.09,NW,304,0.0,0.0,89,0.00,,,0.00,weatherlink.com 1.10,2013-02-06 00:27:00,
2013-02-05 18:42:00,32.6,30.0,30.09,NW,309,0.0,2.0,88,0.00,,,0.00,weatherlink.com 1.10,2013-02-06 00:42:00,
2013-02-05 18:57:00,31.9,29.0,30.10,NW,309,0.0,0.0,90,0.00,,,0.00,weatherlink.com 1.10,2013-02-06 00:57:00,
2013-02-05 19:12:00,31.3,29.0,30.12,NW,309,0.0,0.0,90,0.00,,,0.00,weatherlink.com 1.10,2013-02-06 01:12:00,
2013-02-05 19:27:00,31.0,29.0,30.12,NW,318,1.0,2.0,92,0.00,,,0.00,weatherlink.com 1.10,2013-02-06 01:27:00,
2013-02-05 19:42:00,33.7,31.0,30.13,NW,313,4.0,7.0,88,0.00,,,0.00,weatherlink.com 1.10,2013-02-06 01:42:00,
2013-02-05 19:57:00,34.0,30.0,30.13,NW,309,3.0,5.0,86,0.00,,,0.00,weatherlink.com 1.10,2013-02-06 01:57:00,
2013-02-05 20:12:00,32.9,29.0,30.14,NNW,344,3.0,3.0,86,0.00,,,0.00,weatherlink.com 1.10,2013-02-06 02:12:00,
2013-02-05 20:28:00,32.6,30.0,30.14,NNW,328,0.0,4.0,88,0.00,,,0.00,weatherlink.com 1.10,2013-02-06 02:28:00,
2013-02-05 20:42:00,32.3,29.0,30.15,NNW,343,0.0,3.0,88,0.00,,,0.00,weatherlink.com 1.10,2013-02-06 02:42:00,
2013-02-05 20:58:00,31.2,28.0,30.15,West,269,0.0,2.0,88,0.00,,,0.00,weatherlink.com 1.10,2013-02-06 02:58:00,
2013-02-05 21:13:00,30.5,27.0,30.15,West,269,0.0,0.0,88,0.00,,,0.00,weatherlink.com 1.10,2013-02-06 03:13:00,
2013-02-05 21:28:00,29.6,27.0,30.16,West,269,0.0,0.0,89,0.00,,,0.00,weatherlink.com 1.10,2013-02-06 03:28:00,
2013-02-05 21:43:00,28.9,26.0,30.16,West,269,0.0,0.0,90,0.00,,,0.00,weatherlink.com 1.10,2013-02-06 03:43:00,
2013-02-05 21:58:00,28.2,26.0,30.16,West,269,0.0,1.0,91,0.00,,,0.00,weatherlink.com 1.10,2013-02-06 03:58:00,
2013-02-05 22:13:00,27.6,25.0,30.17,West,269,0.0,0.0,91,0.00,,,0.00,weatherlink.com 1.10,2013-02-06 04:13:00,
2013-02-05 22:28:00,27.2,25.0,30.17,West,269,0.0,0.0,92,0.00,,,0.00,weatherlink.com 1.10,2013-02-06 04:28:00,
2013-02-05 22:43:00,27.2,26.0,30.18,West,269,0.0,1.0,93,0.00,,,0.00,weatherlink.com 1.10,2013-02-06 04:43:00,
2013-02-05 22:58:00,27.0,25.0,30.17,West,269,0.0,0.0,92,0.00,,,0.00,weatherlink.com 1.10,2013-02-06 04:58:00,
2013-02-05 23:13:00,27.1,25.0,30.17,West,269,0.0,0.0,93,0.00,,,0.00,weatherlink.com 1.10,2013-02-06 05:13:00,
2013-02-05 23:28:00,27.4,26.0,30.17,North,360,0.0,1.0,93,0.00,,,0.00,weatherlink.com 1.10,2013-02-06 05:28:00,
2013-02-05 23:43:00,27.9,26.0,30.18,NNE,22,0.0,2.0,93,0.00,,,0.00,weatherlink.com 1.10,2013-02-06 05:43:00,
2013-02-05 23:58:00,28.0,26.0,30.18,NNE,22,0.0,0.0,92,0.00,,,0.00,weatherlink.com 1.10,2013-02-06 05:58:00,